Find Starlink 2637

NORAD ID: 48356 Int'l Des: 2021-038 Owner: SPXS Country: US Constellation: starlink operational
LEOCIRCULAR

当前视图

正在加载3D地球...

About Starlink 2637

Starlink 2637 (NORAD 48356) is a starlink constellation satellite (v1.0) launched May 4, 2021 by SPXS of US. It operates in LEO, CIRCULAR orbit with a mass of 260.00 kg.

关于 Starlink 2637

正在加载描述...

即将过境

Passes for default location (London). Set your location on the main map for personalized predictions.

高度历史

Loading altitude history...

两行轨道根数

1 48356U 21038D 26169.50500073 .00002419 00000-0 89682-4 0 9997
2 48356 53.1591 249.3991 0001133 85.9493 274.1638 15.31706084282520
Epoch: Jun 18, 2026 • Age: 26 hours

当前状态

高度 470.7 km
速度 7.63 km/s
星下点 10.74°N, 60.03°W
发射日期 May 4, 2021
运行时间 5.1 years
类型 internet

技术详情

分类 Payload
质量 260.00 kg
干质量 248.00 kg
总质量 260.00 kg
长度 0.20 m
直径 2.80 m
跨度 9.00 m
形状 Box + pan
制造商 SPXS
平台类型 Starlink
阶段状态 In Orbit
所有者/国家 SPXS/US

Most Searched